Location: CARMA
(37.2805°N, 118.1419°W)
Time: 00:17:03
(UTC-07:00)

Daily predictions for brighter satellites

Satellite Brightness Start Highest point End
(mag) Time Altitude Azimuth Time Altitude Azimuth Time Altitude Azimuth
Cosmos 2278 Rocket 4.1 00:10:57 10° NNW 00:13:15 25° NW 00:13:15 25° NW
SL-16 R/B 4.2 00:45:21 23° N 00:45:21 23° N 00:47:27 10° NNE
Cosmos 2369 Rocket 4.1 01:20:34 10° N 01:23:26 25° NNE 01:23:26 25° NNE
CENTAUR R/B 4.2 01:34:48 10° NW 01:38:54 32° WNW 01:38:54 32° WNW
ADEOS Rocket 4.2 02:05:38 10° NNE 02:08:42 32° NE 02:08:42 32° NE
Cosmos 1943 Rocket 3.8 02:51:56 10° NNW 02:54:06 25° NNW 02:54:06 25° NNW
SL-16 R/B 2.6 03:00:43 70° ENE 03:00:45 70° ENE 03:06:57 10° N
Resurs 1-4 Rocket 2.8 02:56:25 10° NNE 03:00:31 51° NE 03:00:31 51° NE
Cosmos 1821 Rocket 4.2 03:04:52 64° NNW 03:04:52 64° NNW 03:10:11 10° N
Cosmos 2123 Rocket 4.2 02:58:53 10° N 03:05:06 62° E 03:05:32 61° ESE
Cosmos 1656 Rocket 4.2 02:59:34 10° NNW 03:05:11 56° ENE 03:05:19 56° ENE
BREEZE-M DEB (TANK) 3.9 03:05:59 77° S 03:05:59 77° S 03:23:02 10° SE
CZ-2D R/B 2.5 03:07:06 10° NNE 03:11:34 61° NNE 03:11:34 61° NNE
Centaur D AC-29 4.0 03:15:46 25° SSE 03:15:46 25° SSE 03:25:09 10° ESE
Cosmos 1934 Rocket 3.9 03:19:10 70° NW 03:19:10 70° NW 03:24:40 10° N
USA 229 DEB 4.2 03:16:51 10° NNW 03:23:58 62° NE 03:31:12 10° SE
USA 229 4.2 03:16:58 10° NNW 03:24:04 61° NE 03:31:18 10° SE
Cosmos 1605 Rocket 3.9 03:32:10 74° SSW 03:32:49 86° W 03:39:16 10° N
ARIANE 5 R/B 2.6 03:28:08 10° N 03:32:51 69° NNW 03:32:51 69° NNW
UNKNOWN OBJECT B 3.9 03:32:21 10° NNE 03:35:28 46° NE 03:35:28 46° NE
Cosmos 1400 Rocket 4.5 03:32:46 10° N 03:34:44 28° N 03:34:44 28° N
Cosmos 1726 3.7 03:38:31 35° NE 03:38:31 35° NE 03:40:56 10° NNE
MOZ.5/SAFIR/RUBIN 5/SL-8 3.9 03:39:36 69° ENE 03:39:36 69° ENE 03:44:15 10° N
SL-27 R/B 4.4 03:41:53 28° NE 03:41:53 28° NE 03:43:46 10° NNE
Hubble Space Telescope 3.4 03:48:18 11° SE 03:48:18 11° SE 03:48:30 10° SE
ADEOS II 3.6 03:47:29 10° NE 03:52:08 31° E 03:55:48 15° SSE
Cosmos 2221 3.9 03:54:47 28° NW 03:54:47 28° NW 03:57:18 10° N
Cosmos 1153 Rocket 4.4 03:53:36 49° SSW 03:55:28 85° W 04:01:51 10° N
Cosmos 1666 Rocket 3.7 03:51:05 10° N 03:55:32 73° E 03:56:03 64° SE
ADEOS Rocket 4.4 03:52:26 10° NNW 03:55:38 18° WNW 03:55:38 18° WNW
Cosmos 1805 Rocket 4.0 03:53:04 10° NNW 03:56:30 50° NW 03:56:30 50° NW
IRS-1D 4.3 03:53:06 10° N 03:57:32 38° WNW 03:57:32 38° WNW
Kakehashi 4.1 04:00:13 38° S 04:01:02 40° SSE 04:07:29 10° E
ADEOS 4.0 04:01:43 10° N 04:06:38 43° WNW 04:06:52 43° WNW
BREEZE-M DEB (TANK) 4.5 04:05:03 16° NW 04:07:26 32° NNE 04:14:16 10° E
BREEZE M DEB (TANK) 3.5 04:05:41 22° NW 04:08:07 72° NE 04:19:57 10° ESE
Cosmos 773 Rocket 4.4 04:06:32 34° S 04:08:41 61° ESE 04:13:54 10° NNE
Cosmos 2100 Rocket 4.1 04:05:50 26° S 04:09:36 78° E 04:15:59 10° N
OAO 1 4.5 04:09:56 55° SW 04:11:01 69° S 04:16:31 10° E
COSMOS 2406 3.7 04:11:14 39° W 04:12:05 41° WNW 04:17:27 10° N
Cosmos 1447 Rocket 4.4 04:08:26 10° NNW 04:14:33 67° W 04:17:42 30° SSW
Okean O Rocket 3.4 04:10:49 10° NE 04:14:39 28° E 04:18:25 10° SSE
Cosmos 1151 Rocket 4.0 04:15:14 20° SSE 04:17:55 45° E 04:22:01 10° NNE
Cosmos 2285 Rocket 4.4 04:16:38 38° WSW 04:18:21 47° WNW 04:24:31 10° N
Cosmos 1833 Rocket 4.1 04:14:04 11° SSE 04:18:54 33° ESE 04:23:54 10° NE
Meteor 2-10 4.1 04:19:23 32° SSW 04:22:10 82° W 04:27:52 10° N
Cosmos 1300 2.9 04:22:37 52° WNW 04:22:37 52° WNW 04:26:09 10° N
Sich 1 3.4 04:27:23 10° NNW 04:31:30 40° W 04:31:36 40° W
CZ-2D R/B 4.4 04:31:13 10° N 04:34:38 29° WNW 04:34:38 29° WNW
Cosmos 2173 Rocket 4.0 04:31:44 22° SSW 04:35:56 71° W 04:42:18 10° N
Cosmos 1455 3.4 04:35:29 10° SSE 04:39:01 41° E 04:42:35 10° NNE
Cosmos 1315 Rocket 3.6 04:36:36 10° NNW 04:39:53 32° W 04:39:53 32° W
Resurs 1-4 Rocket 3.9 04:38:00 10° NNW 04:40:54 15° WNW 04:41:35 15° WNW
SL-16 R/B 4.1 04:45:49 16° W 04:45:49 16° W 04:48:31 10° NW
Cosmos 1470 Rocket 3.4 04:43:38 10° NNW 04:47:56 70° W 04:52:13 10° S
Cosmos 2228 Rocket 3.4 04:46:16 29° SW 04:48:09 48° W 04:52:29 10° N
PSLV R/B 4.0 04:47:34 21° NW 04:49:21 46° N 04:52:30 10° E
Cosmos 1697 Rocket 4.4 04:45:43 10° N 04:50:55 36° ENE 04:56:04 10° SE
CZ-2D R/B 4.1 04:49:39 10° NW 04:51:48 12° WNW 04:52:53 12° WNW
Tiangong 2 1.3 04:51:27 37° SW 04:52:27 60° SSE 04:55:38 10° ENE
CZ-4B DEB 4.5 04:48:11 10° NNE 04:53:42 69° ESE 04:59:09 10° S
Cosmos 1515 Rocket 3.8 04:52:15 24° SW 04:54:33 49° W 04:58:51 10° N
Cosmos 1459 Rocket 4.3 04:54:42 19° SW 04:58:48 44° W 05:04:34 10° N
PSLV R/B 4.0 04:55:20 10° N 04:59:26 59° WNW 05:02:27 17° SSW
Cosmos 1633 Rocket 4.2 04:56:30 10° NW 04:59:59 24° W 05:00:51 22° WSW
Cosmos 923 Rocket 4.0 04:58:17 15° SSW 05:02:37 73° WNW 05:07:52 10° NNE
Cosmos 2082 Rocket 2.2 04:58:18 11° SSW 05:03:42 87° ESE 05:09:21 10° NNE
IRS-1C Rocket 4.2 05:00:51 10° NNE 05:06:08 79° ESE 05:11:24 10° S
CZ-4B R/B 3.3 05:05:12 10° N 05:09:33 54° WNW 05:13:50 11° SSW
Meteor 1-31 Rocket 3.8 05:06:20 10° NNE 05:10:10 48° E 05:13:58 10° S
Lacrosse 5 2.8 05:06:45 10° NNW 05:11:43 52° NE 05:16:39 10° ESE
Meteor 2-3 Rocket 3.7 05:06:26 10° NNW 05:12:03 70° W 05:17:42 10° S
Meteor PRIRODA 4.0 05:09:35 10° NNE 05:13:13 66° E 05:16:50 10° S
Cosmos 192 4.4 05:09:49 11° SSW 05:14:28 65° WNW 05:19:25 10° NNE
CZ-2C R/B 4.1 05:14:43 10° SSE 05:19:05 66° ENE 05:23:31 10° N
NOSS 3-1 (A) 4.1 05:12:26 10° NW 05:20:12 70° WSW 05:28:39 10° SSE
Shenzhou-11 Module 2.4 05:18:40 17° W 05:20:53 57° NNW 05:23:56 10° ENE
Landsat 4 3.6 05:17:32 10° S 05:21:15 72° WSW 05:24:59 10° NNW
Cosmos 1680 Rocket 3.6 05:16:27 10° SSW 05:21:41 64° WNW 05:26:59 10° NNE
Cosmos 1892 3.1 05:18:17 10° NNW 05:21:54 41° W 05:25:32 10° SSW
CZ-4B R/B 3.2 05:16:37 10° N 05:22:04 70° WNW 05:27:23 10° SSW
Hubble Space Telescope 2.2 05:23:40 13° SW 05:26:29 24° S 05:29:49 10° SE
Cosmos 2112 Rocket 4.1 05:23:00 10° SSW 05:28:15 66° WNW 05:33:35 10° NNE
PAYLOAD B 4.5 05:24:38 10° N 05:30:04 52° WNW 05:35:26 10° SW
Cosmos 2084 3.5 05:26:34 10° SSW 05:30:40 73° ESE 05:34:34 10° NE
ADEOS II 3.1 05:27:15 10° N 05:31:44 29° WNW 05:36:11 10° SW
PSLV R/B 4.4 05:28:09 10° N 05:32:02 32° WNW 05:35:51 10° SW
Cosmos 2369 3.8 05:27:44 10° NNW 05:33:12 52° WSW 05:38:38 10° S
Cosmos 2233 Rocket 4.0 05:27:19 10° S 05:33:27 80° W 05:39:36 10° N
OAO 2 Rocket 4.0 05:29:52 10° SW 05:34:28 42° SSE 05:39:12 10° E
Abrixas 2.1 05:32:06 10° WNW 05:34:41 60° SW 05:37:16 10° SE
Cosmos 1825 2.7 05:33:12 10° N 05:36:59 65° E 05:40:46 10° SSE
COSMOS 2487 3.6 05:36:42 10° SW 05:39:42 26° WNW 05:42:44 10° N
USA 234 3.4 05:37:54 10° NE 05:44:29 89° SE 05:51:02 10° SW
Cosmos 1656 3.9 05:41:18 10° NNW 05:46:50 52° WSW 05:52:18 10° S
Okean-O 2.9 05:43:14 10° NNE 05:47:41 76° ESE 05:52:06 10° S
Cosmos 2056 Rocket 4.4 05:43:37 10° N 05:48:56 58° ENE 05:54:15 10° SSE
Lacrosse 4 Rocket 4.0 05:46:34 10° SSE 05:50:05 24° ESE 05:53:39 10° NE
Okean O Rocket 2.9 05:47:21 10° NNW 05:50:51 23° WNW 05:54:19 10° WSW
